Time,TemperatureF,DewpointF,PressureIn,WindDirection,WindDirectionDegrees,WindSpeedMPH,WindSpeedGustMPH,Humidity,HourlyPrecipIn,Conditions,Clouds,dailyrainin,SoftwareType,DateUTC
2013-01-23 00:13:00,50.0,-99.9,30.34,NE,40,1.0,-999.0,-999,-99.99,,,-99.99,,2013-01-23 06:13:00,
2013-01-23 00:23:00,50.0,-99.9,30.34,NE,40,1.0,-999.0,-999,-99.99,,,-99.99,,2013-01-23 06:23:00,
2013-01-23 00:30:00,50.0,-99.9,30.34,ENE,70,3.0,-999.0,-999,-99.99,,,-99.99,,2013-01-23 06:30:00,
2013-01-23 01:00:00,50.0,-99.9,30.34,East,100,5.0,-999.0,-999,-99.99,,,-99.99,,2013-01-23 07:00:00,
2013-01-23 01:23:00,50.0,-99.9,30.34,ENE,70,3.0,-999.0,-999,-99.99,,,-99.99,,2013-01-23 07:23:00,
2013-01-23 01:30:00,50.0,-99.9,30.33,ESE,120,5.0,-999.0,-999,-99.99,,,-99.99,,2013-01-23 07:30:00,
2013-01-23 01:43:00,50.0,-99.9,30.34,East,100,5.0,-999.0,-999,-99.99,,,-99.99,,2013-01-23 07:43:00,
2013-01-23 01:53:00,50.0,-99.9,30.34,East,100,5.0,-999.0,-999,-99.99,,,-99.99,,2013-01-23 07:53:00,
2013-01-23 02:00:00,50.0,-99.9,30.32,East,100,6.0,-999.0,-999,-99.99,,,-99.99,,2013-01-23 08:00:00,
2013-01-23 02:13:00,50.0,-99.9,30.33,ESE,120,5.0,-999.0,-999,-99.99,,,-99.99,,2013-01-23 08:13:00,
2013-01-23 02:23:00,50.0,-99.9,30.33,ESE,120,5.0,-999.0,-999,-99.99,,,-99.99,,2013-01-23 08:23:00,
2013-01-23 02:30:00,49.0,-99.9,30.33,East,90,6.0,-999.0,-999,-99.99,,,-99.99,,2013-01-23 08:30:00,
2013-01-23 02:43:00,50.0,-99.9,30.32,East,100,6.0,-999.0,-999,-99.99,,,-99.99,,2013-01-23 08:43:00,
2013-01-23 02:53:00,50.0,-99.9,30.32,East,100,6.0,-999.0,-999,-99.99,,,-99.99,,2013-01-23 08:53:00,
2013-01-23 03:00:00,49.0,-99.9,30.33,East,100,7.0,-999.0,-999,-99.99,,,-99.99,,2013-01-23 09:00:00,
2013-01-23 03:23:00,49.0,-99.9,30.33,East,90,6.0,-999.0,-999,-99.99,,,-99.99,,2013-01-23 09:23:00,
2013-01-23 03:30:00,49.0,-99.9,30.32,East,90,6.0,-999.0,-999,-99.99,,,-99.99,,2013-01-23 09:30:00,
2013-01-23 03:44:00,49.0,-99.9,30.33,East,100,7.0,-999.0,-999,-99.99,,,-99.99,,2013-01-23 09:44:00,
2013-01-23 03:53:00,49.0,-99.9,30.33,East,100,7.0,-999.0,-999,-99.99,,,-99.99,,2013-01-23 09:53:00,
2013-01-23 04:00:00,49.0,-99.9,30.33,East,80,6.0,-999.0,-999,-99.99,,,-99.99,,2013-01-23 10:00:00,
2013-01-23 04:23:00,49.0,-99.9,30.32,East,90,6.0,-999.0,-999,-99.99,,,-99.99,,2013-01-23 10:23:00,
2013-01-23 04:30:00,49.0,-99.9,30.33,East,90,5.0,-999.0,-999,-99.99,,,-99.99,,2013-01-23 10:30:00,
2013-01-23 04:43:00,49.0,-99.9,30.33,East,80,6.0,-999.0,-999,-99.99,,,-99.99,,2013-01-23 10:43:00,
2013-01-23 04:53:00,49.0,-99.9,30.33,East,80,6.0,-999.0,-999,-99.99,,,-99.99,,2013-01-23 10:53:00,
2013-01-23 05:00:00,49.0,-99.9,30.33,ENE,70,3.0,-999.0,-999,-99.99,,,-99.99,,2013-01-23 11:00:00,
2013-01-23 05:12:00,49.0,-99.9,30.33,East,90,5.0,-999.0,-999,-99.99,,,-99.99,,2013-01-23 11:12:00,
2013-01-23 05:23:00,49.0,-99.9,30.33,East,90,5.0,-999.0,-999,-99.99,,,-99.99,,2013-01-23 11:23:00,
2013-01-23 05:30:00,49.0,-99.9,30.35,NE,40,5.0,-999.0,-999,-99.99,,,-99.99,,2013-01-23 11:30:00,
2013-01-23 05:43:00,49.0,-99.9,30.33,ENE,70,3.0,-999.0,-999,-99.99,,,-99.99,,2013-01-23 11:43:00,
2013-01-23 05:53:00,49.0,-99.9,30.33,ENE,70,3.0,-999.0,-999,-99.99,,,-99.99,,2013-01-23 11:53:00,
2013-01-23 06:00:00,49.0,-99.9,30.35,NNE,30,6.0,-999.0,-999,-99.99,,,-99.99,,2013-01-23 12:00:00,
2013-01-23 06:13:00,49.0,-99.9,30.35,NE,40,5.0,-999.0,-999,-99.99,,,-99.99,,2013-01-23 12:13:00,
2013-01-23 06:23:00,49.0,-99.9,30.35,NE,40,5.0,-999.0,-999,-99.99,,,-99.99,,2013-01-23 12:23:00,
2013-01-23 06:30:00,48.0,-99.9,30.36,NE,40,7.0,-999.0,-999,-99.99,,,-99.99,,2013-01-23 12:30:00,
2013-01-23 06:43:00,49.0,-99.9,30.35,NNE,30,6.0,-999.0,-999,-99.99,,,-99.99,,2013-01-23 12:43:00,
2013-01-23 06:53:00,49.0,-99.9,30.35,NNE,30,6.0,-999.0,-999,-99.99,,,-99.99,,2013-01-23 12:53:00,
2013-01-23 07:00:00,49.0,-99.9,30.37,North,10,7.0,-999.0,-999,-99.99,,,-99.99,,2013-01-23 13:00:00,
2013-01-23 07:13:00,48.0,-99.9,30.36,NE,40,7.0,-999.0,-999,-99.99,,,-99.99,,2013-01-23 13:13:00,
2013-01-23 07:23:00,48.0,-99.9,30.36,NE,40,7.0,-999.0,-999,-99.99,,,-99.99,,2013-01-23 13:23:00,
2013-01-23 07:30:00,53.0,-99.9,30.38,NNE,20,5.0,-999.0,-999,-99.99,,,-99.99,,2013-01-23 13:30:00,
2013-01-23 07:43:00,49.0,-99.9,30.37,North,10,7.0,-999.0,-999,-99.99,,,-99.99,,2013-01-23 13:43:00,
2013-01-23 07:53:00,49.0,-99.9,30.37,North,10,7.0,-999.0,-999,-99.99,,,-99.99,,2013-01-23 13:53:00,
2013-01-23 08:00:00,50.0,-99.9,30.37,ENE,60,5.0,-999.0,-999,-99.99,,,-99.99,,2013-01-23 14:00:00,
2013-01-23 08:12:00,53.0,-99.9,30.38,NNE,20,5.0,-999.0,-999,-99.99,,,-99.99,,2013-01-23 14:12:00,
2013-01-23 08:24:00,53.0,-99.9,30.38,NNE,20,5.0,-999.0,-999,-99.99,,,-99.99,,2013-01-23 14:24:00,
2013-01-23 08:30:00,51.0,-99.9,30.38,East,80,3.0,-999.0,-999,-99.99,,,-99.99,,2013-01-23 14:30:00,
2013-01-23 08:43:00,50.0,-99.9,30.37,ENE,60,5.0,-999.0,-999,-99.99,,,-99.99,,2013-01-23 14:43:00,
2013-01-23 08:53:00,50.0,-99.9,30.37,ENE,60,5.0,-999.0,-999,-99.99,,,-99.99,,2013-01-23 14:53:00,
2013-01-23 09:00:00,51.0,-99.9,30.38,SE,140,5.0,-999.0,-999,-99.99,,,-99.99,,2013-01-23 15:00:00,
2013-01-23 09:23:00,51.0,-99.9,30.38,East,80,3.0,-999.0,-999,-99.99,,,-99.99,,2013-01-23 15:23:00,
2013-01-23 09:30:00,56.0,-99.9,30.40,NNE,30,3.0,-999.0,-999,-99.99,,,-99.99,,2013-01-23 15:30:00,
2013-01-23 09:44:00,51.0,-99.9,30.38,SE,140,5.0,-999.0,-999,-99.99,,,-99.99,,2013-01-23 15:44:00,
2013-01-23 09:53:00,51.0,-99.9,30.38,SE,140,5.0,-999.0,-999,-99.99,,,-99.99,,2013-01-23 15:53:00,
2013-01-23 10:00:00,59.0,-99.9,30.40,NNE,30,2.0,-999.0,-999,-99.99,,,-99.99,,2013-01-23 16:00:00,
2013-01-23 10:12:00,56.0,-99.9,30.40,NNE,30,3.0,-999.0,-999,-99.99,,,-99.99,,2013-01-23 16:12:00,
2013-01-23 10:23:00,56.0,-99.9,30.40,NNE,30,3.0,-999.0,-999,-99.99,,,-99.99,,2013-01-23 16:23:00,
2013-01-23 10:30:00,59.0,-99.9,30.40,NW,310,1.0,-999.0,-999,-99.99,,,-99.99,,2013-01-23 16:30:00,
2013-01-23 10:43:00,59.0,-99.9,30.40,NNE,30,2.0,-999.0,-999,-99.99,,,-99.99,,2013-01-23 16:43:00,
2013-01-23 10:53:00,59.0,-99.9,30.40,NNE,30,2.0,-999.0,-999,-99.99,,,-99.99,,2013-01-23 16:53:00,
2013-01-23 11:00:00,57.0,-99.9,30.38,South,190,1.0,-999.0,-999,-99.99,,,-99.99,,2013-01-23 17:00:00,
2013-01-23 11:13:00,59.0,-99.9,30.40,NW,310,1.0,-999.0,-999,-99.99,,,-99.99,,2013-01-23 17:13:00,
2013-01-23 11:23:00,59.0,-99.9,30.40,NW,310,1.0,-999.0,-999,-99.99,,,-99.99,,2013-01-23 17:23:00,
2013-01-23 11:30:00,55.0,-99.9,30.37,SE,140,5.0,-999.0,-999,-99.99,,,-99.99,,2013-01-23 17:30:00,
2013-01-23 11:43:00,57.0,-99.9,30.38,South,190,1.0,-999.0,-999,-99.99,,,-99.99,,2013-01-23 17:43:00,
2013-01-23 11:53:00,57.0,-99.9,30.38,South,190,1.0,-999.0,-999,-99.99,,,-99.99,,2013-01-23 17:53:00,
2013-01-23 12:00:00,55.0,-99.9,30.35,SE,130,6.0,-999.0,-999,-99.99,,,-99.99,,2013-01-23 18:00:00,
2013-01-23 12:13:00,55.0,-99.9,30.37,SE,140,5.0,-999.0,-999,-99.99,,,-99.99,,2013-01-23 18:13:00,
2013-01-23 12:24:00,55.0,-99.9,30.37,SE,140,5.0,-999.0,-999,-99.99,,,-99.99,,2013-01-23 18:24:00,
2013-01-23 12:30:00,56.0,-99.9,30.34,SSE,150,8.0,-999.0,-999,-99.99,,,-99.99,,2013-01-23 18:30:00,
2013-01-23 12:44:00,55.0,-99.9,30.35,SE,130,6.0,-999.0,-999,-99.99,,,-99.99,,2013-01-23 18:44:00,
2013-01-23 12:53:00,55.0,-99.9,30.35,SE,130,6.0,-999.0,-999,-99.99,,,-99.99,,2013-01-23 18:53:00,
2013-01-23 13:00:00,56.0,-99.9,30.33,SE,140,8.0,-999.0,-999,-99.99,,,-99.99,,2013-01-23 19:00:00,
2013-01-23 13:13:00,56.0,-99.9,30.34,SSE,150,8.0,-999.0,-999,-99.99,,,-99.99,,2013-01-23 19:13:00,
2013-01-23 13:23:00,56.0,-99.9,30.34,SSE,150,8.0,-999.0,-999,-99.99,,,-99.99,,2013-01-23 19:23:00,
2013-01-23 13:30:00,57.0,-99.9,30.31,SSE,150,10.0,-999.0,-999,-99.99,,,-99.99,,2013-01-23 19:30:00,
2013-01-23 13:43:00,56.0,-99.9,30.33,SE,140,8.0,-999.0,-999,-99.99,,,-99.99,,2013-01-23 19:43:00,
2013-01-23 13:53:00,56.0,-99.9,30.33,SE,140,8.0,-999.0,-999,-99.99,,,-99.99,,2013-01-23 19:53:00,
2013-01-23 14:00:00,57.0,-99.9,30.31,SSE,160,11.0,-999.0,-999,-99.99,,,-99.99,,2013-01-23 20:00:00,
2013-01-23 14:30:00,58.0,-99.9,30.31,South,170,10.0,-999.0,-999,-99.99,,,-99.99,,2013-01-23 20:30:00,
2013-01-23 14:54:00,57.0,-99.9,30.31,SSE,160,11.0,-999.0,-999,-99.99,,,-99.99,,2013-01-23 20:54:00,
2013-01-23 15:00:00,58.0,-99.9,30.31,South,170,11.0,-999.0,-999,-99.99,,,-99.99,,2013-01-23 21:00:00,
2013-01-23 15:12:00,58.0,-99.9,30.31,South,170,10.0,-999.0,-999,-99.99,,,-99.99,,2013-01-23 21:12:00,
2013-01-23 15:23:00,58.0,-99.9,30.31,South,170,10.0,-999.0,-999,-99.99,,,-99.99,,2013-01-23 21:23:00,
2013-01-23 15:30:00,58.0,-99.9,30.31,South,190,14.0,-999.0,-999,-99.99,,,-99.99,,2013-01-23 21:30:00,
2013-01-23 15:43:00,58.0,-99.9,30.31,South,170,11.0,-999.0,-999,-99.99,,,-99.99,,2013-01-23 21:43:00,
2013-01-23 15:53:00,58.0,-99.9,30.31,South,170,11.0,-999.0,-999,-99.99,,,-99.99,,2013-01-23 21:53:00,
2013-01-23 16:00:00,58.0,-99.9,30.31,South,190,11.0,-999.0,-999,-99.99,,,-99.99,,2013-01-23 22:00:00,
2013-01-23 16:13:00,58.0,-99.9,30.31,South,190,14.0,-999.0,-999,-99.99,,,-99.99,,2013-01-23 22:13:00,
2013-01-23 16:23:00,58.0,-99.9,30.31,South,190,14.0,-999.0,-999,-99.99,,,-99.99,,2013-01-23 22:23:00,
2013-01-23 16:30:00,58.0,-99.9,30.30,SSW,210,13.0,-999.0,-999,-99.99,,,-99.99,,2013-01-23 22:30:00,
2013-01-23 16:43:00,58.0,-99.9,30.31,South,190,11.0,-999.0,-999,-99.99,,,-99.99,,2013-01-23 22:43:00,
2013-01-23 16:53:00,58.0,-99.9,30.31,South,190,11.0,-999.0,-999,-99.99,,,-99.99,,2013-01-23 22:53:00,
2013-01-23 17:00:00,58.0,-99.9,30.31,SSW,210,13.0,-999.0,-999,-99.99,,,-99.99,,2013-01-23 23:00:00,
2013-01-23 17:13:00,58.0,-99.9,30.30,SSW,210,13.0,-999.0,-999,-99.99,,,-99.99,,2013-01-23 23:13:00,
2013-01-23 17:23:00,58.0,-99.9,30.30,SSW,210,13.0,-999.0,-999,-99.99,,,-99.99,,2013-01-23 23:23:00,
2013-01-23 17:30:00,57.0,-99.9,30.31,SSW,210,13.0,-999.0,-999,-99.99,,,-99.99,,2013-01-23 23:30:00,
2013-01-23 17:43:00,58.0,-99.9,30.31,SSW,210,13.0,-999.0,-999,-99.99,,,-99.99,,2013-01-23 23:43:00,
2013-01-23 17:53:00,58.0,-99.9,30.31,SSW,210,13.0,-999.0,-999,-99.99,,,-99.99,,2013-01-23 23:53:00,
2013-01-23 18:00:00,56.0,-99.9,30.30,SSW,200,13.0,-999.0,-999,-99.99,,,-99.99,,2013-01-24 00:00:00,
2013-01-23 18:23:00,57.0,-99.9,30.31,SSW,210,13.0,-999.0,-999,-99.99,,,-99.99,,2013-01-24 00:23:00,
2013-01-23 18:30:00,57.0,-99.9,30.30,SSW,200,13.0,-999.0,-999,-99.99,,,-99.99,,2013-01-24 00:30:00,
2013-01-23 18:53:00,56.0,-99.9,30.30,SSW,200,13.0,-999.0,-999,-99.99,,,-99.99,,2013-01-24 00:53:00,
2013-01-23 19:00:00,56.0,-99.9,30.30,SSW,210,11.0,-999.0,-999,-99.99,,,-99.99,,2013-01-24 01:00:00,
2013-01-23 19:12:00,57.0,-99.9,30.30,SSW,200,13.0,-999.0,-999,-99.99,,,-99.99,,2013-01-24 01:12:00,
2013-01-23 19:23:00,57.0,-99.9,30.30,SSW,200,13.0,-999.0,-999,-99.99,,,-99.99,,2013-01-24 01:23:00,
2013-01-23 19:30:00,56.0,-99.9,30.31,SSW,210,10.0,-999.0,-999,-99.99,,,-99.99,,2013-01-24 01:30:00,
2013-01-23 19:43:00,56.0,-99.9,30.30,SSW,210,11.0,-999.0,-999,-99.99,,,-99.99,,2013-01-24 01:43:00,
2013-01-23 19:53:00,56.0,-99.9,30.30,SSW,210,11.0,-999.0,-999,-99.99,,,-99.99,,2013-01-24 01:53:00,
2013-01-23 20:00:00,56.0,-99.9,30.31,SSW,210,11.0,-999.0,-999,-99.99,,,-99.99,,2013-01-24 02:00:00,
2013-01-23 20:12:00,56.0,-99.9,30.31,SSW,210,10.0,-999.0,-999,-99.99,,,-99.99,,2013-01-24 02:12:00,
2013-01-23 20:23:00,56.0,-99.9,30.31,SSW,210,10.0,-999.0,-999,-99.99,,,-99.99,,2013-01-24 02:23:00,
2013-01-23 20:30:00,56.0,-99.9,30.30,SSW,200,13.0,-999.0,-999,-99.99,,,-99.99,,2013-01-24 02:30:00,
2013-01-23 21:00:00,56.0,-99.9,30.31,SSW,210,9.0,-999.0,-999,-99.99,,,-99.99,,2013-01-24 03:00:00,
2013-01-23 21:12:00,56.0,-99.9,30.30,SSW,200,13.0,-999.0,-999,-99.99,,,-99.99,,2013-01-24 03:12:00,
2013-01-23 21:22:00,56.0,-99.9,30.30,SSW,200,13.0,-999.0,-999,-99.99,,,-99.99,,2013-01-24 03:22:00,
2013-01-23 21:30:00,56.0,-99.9,30.31,SSW,210,9.0,-999.0,-999,-99.99,,,-99.99,,2013-01-24 03:30:00,
2013-01-23 21:43:00,56.0,-99.9,30.31,SSW,210,9.0,-999.0,-999,-99.99,,,-99.99,,2013-01-24 03:43:00,
2013-01-23 21:53:00,56.0,-99.9,30.31,SSW,210,9.0,-999.0,-999,-99.99,,,-99.99,,2013-01-24 03:53:00,
2013-01-23 22:00:00,56.0,-99.9,30.31,SSW,210,10.0,-999.0,-999,-99.99,,,-99.99,,2013-01-24 04:00:00,
2013-01-23 22:13:00,56.0,-99.9,30.31,SSW,210,9.0,-999.0,-999,-99.99,,,-99.99,,2013-01-24 04:13:00,
2013-01-23 22:22:00,56.0,-99.9,30.31,SSW,210,9.0,-999.0,-999,-99.99,,,-99.99,,2013-01-24 04:22:00,
2013-01-23 22:30:00,56.0,-99.9,30.30,SSW,200,10.0,-999.0,-999,-99.99,,,-99.99,,2013-01-24 04:30:00,
2013-01-23 22:43:00,56.0,-99.9,30.31,SSW,210,10.0,-999.0,-999,-99.99,,,-99.99,,2013-01-24 04:43:00,
2013-01-23 22:53:00,56.0,-99.9,30.31,SSW,210,10.0,-999.0,-999,-99.99,,,-99.99,,2013-01-24 04:53:00,
2013-01-23 23:00:00,56.0,-99.9,30.30,SSW,200,9.0,-999.0,-999,-99.99,,,-99.99,,2013-01-24 05:00:00,
2013-01-23 23:12:00,56.0,-99.9,30.30,SSW,200,10.0,-999.0,-999,-99.99,,,-99.99,,2013-01-24 05:12:00,
2013-01-23 23:23:00,56.0,-99.9,30.30,SSW,200,10.0,-999.0,-999,-99.99,,,-99.99,,2013-01-24 05:23:00,
2013-01-23 23:30:00,56.0,-99.9,30.30,SW,230,7.0,-999.0,-999,-99.99,,,-99.99,,2013-01-24 05:30:00,
2013-01-23 23:43:00,56.0,-99.9,30.30,SSW,200,9.0,-999.0,-999,-99.99,,,-99.99,,2013-01-24 05:43:00,
2013-01-23 23:53:00,56.0,-99.9,30.30,SSW,200,9.0,-999.0,-999,-99.99,,,-99.99,,2013-01-24 05:53:00,